This demonstration page uses our WeatherBlox Daily Observations layout. Learn more.

Left ArrowRight Arrow

34.74481, -87.66753

Hourly Observations for March 6, 2022

Temp ( °F °C ) Dew Point ( °F °C ) Humidity (%) Winds ( mph kmh ) Pressure ( in mb ) Visibility ( mi km ) Precip ( " mm )
12:53 am 00:53 Cloudy 70 21.1 55 12.8 59 59 SSW 12 19 30.14 1021 10 16 0.00 0.00
1:53 am 01:53 Clear 68 20 56 13.3 65 65 SSW 10 17 30.13 1020 10 16 0.00 0.00
2:53 am 02:53 Mostly Cloudy 67 19.4 56 13.3 68 68 SSW 14 22 30.13 1020 10 16 0.00 0.00
3:53 am 03:53 Mostly Cloudy 65 18.3 55 12.8 70 70 SSW 12 19 30.12 1020 10 16 0.00 0.00
4:53 am 04:53 Clear 64 17.8 55 12.8 73 73 SSW 9 15 30.13 1020 10 16 0.00 0.00
5:53 am 05:53 Mostly Clear 63 17.2 56 13.3 78 78 SW 8 13 30.15 1021 10 16 0.00 0.00
6:53 am 06:53 Cloudy 64 17.8 57 13.9 78 78 SSW 9 15 30.15 1021 10 16 0.00 0.00
7:53 am 07:53 Cloudy 64 17.8 58 14.4 81 81 S 7 11 30.16 1022 10 16 0.00 0.00
8:53 am 08:53 Cloudy 67 19.4 59 15 76 76 S 6 9 30.17 1022 10 16 0.00 0.00
9:53 am 09:53 Cloudy 69 20.6 59 15 70 70 SSW 6 9 30.16 1022 10 16 0.00 0.00
10:53 am 10:53 Cloudy 74 23.3 59 15 60 60 SSW 12 19 30.14 1021 10 16 0.00 0.00
11:53 am 11:53 Mostly Cloudy 78 25.6 60 15.6 54 54 SW 12 19 30.12 1020 10 16 0.00 0.00
12:53 pm 12:53 Mostly Cloudy 80 26.7 61 16.1 52 52 S 14 22 30.09 1019 10 16 0.00 0.00
1:53 pm 13:53 Mostly Cloudy 79 26.1 61 16.1 54 54 S 14 22 30.07 1018 10 16 0.00 0.00
2:53 pm 14:53 Mostly Cloudy 81 27.2 60 15.6 49 49 S 10 17 30.05 1018 10 16 0.00 0.00
3:53 pm 15:53 Mostly Cloudy 80 26.7 59 15 49 49 S 15 24 30.03 1017 10 16 0.00 0.00
4:53 pm 16:53 Partly Cloudy 79 26.1 57 13.9 47 47 S 15 24 30.03 1017 10 16 0.00 0.00
5:53 pm 17:53 Cloudy 76 24.4 59 15 56 56 S 14 22 30.02 1017 10 16 0.00 0.00
6:53 pm 18:53 Mostly Cloudy 74 23.3 59 15 60 60 S 8 13 30.00 1016 10 16 0.00 0.00
7:53 pm 19:53 Clear 71 21.7 60 15.6 68 68 SSE 10 17 30.00 1016 10 16 0.00 0.00
8:53 pm 20:53 Clear 70 21.1 60 15.6 71 71 SSE 9 15 29.99 1016 10 16 0.00 0.00
9:53 pm 21:53 Clear 69 20.6 59 15 70 70 SSE 7 11 29.98 1015 10 16 0.00 0.00
10:53 pm 22:53 Clear 71 21.7 59 15 66 66 S 10 17 29.96 1015 10 16 0.00 0.00
11:53 pm 23:53 Clear 71 21.7 59 15 66 66 SSW 15 24 29.94 1014 10 16 0.00 0.00

Powered by AerisWeather